Weather in Verkhneyarkeevo

Russia / Republic of Bashkortostan     55°27′05″N   54°18′32″E
temp.,
°C
wind,
m/s
gust,
m/s
humid.,
%
clouds,
%
prec.,
mm/h
press.,
hPa
HPBL,
m
27 february, sat
sat2723:00−19sse6139023 0.0 1017332
02:00−18sse71589100 0.0 1012465
05:00−16se91594100 0.4 1009601
08:00−15se81594100 2.4 1005698
11:00−12se81390100 3.1 1003652
14:00−10se71092100 0.3 1001593
17:00−9se61092100 0.6 1001509
20:00−9ese599599 0.4 1000375
28 february, sun
sun2823:00−11e5994100 0.8 1000278
02:00−12ene599599 0.3 1000234
05:00−13ne589598 0.6 1001231
08:00−15nne589698 0.3 1001250
11:00−14n589499 0.4 1002326
14:00−11n6893100 0.1 1004463
17:00−10n6892100 0.2 1006528
20:00−13nnw51094100 0.1 1008305
1 march, mon
mon123:00−15nnw589699 0.2 1011206
02:00−17nnw479799 0.1 1013149
05:00−18nnw4798100 0.2 1015136
08:00−22nnw469897 0.1 101789
11:00−20nnw359786 0.1 1018167
14:00−17nnw459469 0.0 1019286
17:00−16nw359484 0.0 1020262
20:00−20wnw239889 0.0 102022
2 march, tue
tue223:00−21w239871 0.0 102120
02:00−22wsw339918 0.0 102023
05:00−22sw349810 0.0 101942
08:00−23ssw46970 0.0 101790
11:00−18ssw6109038 0.0 1015270
14:00−14s71188100 0.0 1012371
17:00−12s71293100 0.1 1009497
20:00−12ssw71294100 0.8 1007519
3 march, wed
wed323:00−12s71294100 1.5 1006466
02:00−11s51194100 0.8 1004432
05:00−10sse5995100 1.8 1002400
08:00−9sse5994100 0.6 1001287
11:00−7sse4695100 1.0 1001288
14:00−4e239499 0.6 1000272
17:00−5n5796100 1.3 1001329
20:00−8n5995100 0.6 1001329